User: anonymous   Login
Location: Clinton NY
(43.0598°N, 75.3602°W)
Time: 18:12:01
(UTC-04:00)
Language:

Iridium 11 - Orbit

View from above orbital plane
View from above orbital plane
View from above satellite
View from above satellite

Ground track
Ground track

The orbit data is extracted from the following two-line orbital elements,

1 25578U 98074B   16151.24101373  .00000230  00000-0  75205-4 0  9998
2 25578  86.3982  55.7028 0002334  84.9254  25.4555 14.34219917922512
Epoch (UTC): 30 May 2016 05:47:03
Eccentricity: 0.0002334
inclination: 86.3982°
perigee height: 776 km
apogee height: 779 km
right ascension of ascending node: 55.7028°
argument of perigee: 84.9254°
revolutions per day: 14.34219917
mean anomaly at epoch: 25.4555°
orbit number at epoch: 92251

The dashed part of the orbit path shows where the satellite is in the earth's shadow,  

DLR